Simultaneous Nadir Overpasses (SNOs) Predictions

Prediction of SNOs between GOES-16 and LANDSAT-8 Satellite Orbit:

Table of predicted SNOs for the next 14.0 days since TLE Epoch: 6/4/2022
Index Date Time (GOES-16) GOES-16 Lat,Lon LANDSAT-8 Lat,Lon Distance(km) Time Diff (sec)
1 06/05/2022 03:12:19 -0.04, -75.19 0.06, -74.68 58.08 80
2 06/07/2022 03:00:10 -0.03, -75.20 0.73, -71.73 394.77 80
3 06/07/2022 15:18:46 0.03, -75.21 0.36, -76.89 190.25 80
4 06/09/2022 15:09:16 0.03, -75.23 -0.26, -73.93 147.29 80
5 06/10/2022 03:28:00 -0.03, -75.22 -0.89, -79.12 443.78 80
6 06/11/2022 14:57:06 0.03, -75.24 -0.88, -70.98 485.08 80
7 06/12/2022 03:18:31 -0.03, -75.24 -0.20, -76.18 105.98 80
8 06/14/2022 03:03:41 -0.02, -75.26 0.43, -73.22 231.82 80
9 06/14/2022 15:24:57 0.02, -75.27 0.66, -78.38 353.09 80
10 06/16/2022 15:12:47 0.01, -75.29 0.03, -75.43 15.18 80
